Eagle River, WI

1:23 AM CDT on September 26, 2016 (GMT -0500)
Eagle River Union

Weather History for KEGV - July, 2014

Change the Weather History Date:

Wednesday, July 16, 2014

  Actual Average Record
Temperature  
Mean Temperature 54 °F -  
Max Temperature 70 °F 79 °F 91 °F (2012)
Min Temperature 39 °F 57 °F 39 °F (2014)
Degree Days  
Heating Degree Days 10    
Growing Degree Days 4 (Base 50)    
Moisture  
Dew Point 44 °F    
Average Humidity 71    
Maximum Humidity 100    
Minimum Humidity 34    
Precipitation  
Precipitation 0.00 in - - ()
Sea Level Pressure  
Sea Level Pressure 30.02 in    
Wind  
Wind Speed 2 mph (NNW)    
Max Wind Speed 10 mph    
Max Gust Speed 18 mph    
Visibility 8 miles    
Events Fog    
Averages and records for this station are not official NWS values.
T = Trace of Precipitation, MM = Missing Value Source: NWS Daily Summary

Daily Weather History Graph

Daily Weather History Graph

Search for Another Location

Airport or City:

Trip Planner

Search our weather history database for the weather conditions in past years. The results will help you decide how hot, cold, wet, or windy it might be!

Date:

Astronomy

Jul. 16, 2014 Rise Set
Actual Time 5:22 AM CDT 8:43 PM CDT
Civil Twilight 4:45 AM CDT 9:20 PM CDT
Nautical Twilight 3:57 AM CDT 10:07 PM CDT
Astronomical Twilight 2:56 AM CDT 11:08 PM CDT
Moon 11:07 PM CDT (7/16) 10:44 AM CDT (7/16)
Length of Visible Light 16h 34m
Length of Day
15h 21m
Waning Gibbous, 76% of the Moon is Illuminated
Jul 16
Waning Gibbous
Jul 18
Last Quarter
Jul 26
New
Aug 3
First Quarter
Aug 10
Full

Hourly Weather History & Observations

Time (CDT) Temp. Dew Point Humidity Pressure Visibility Wind Dir Wind Speed Gust Speed Precip Events Conditions
12:15 AM 43.2 °F 43.2 °F 100% 30.02 in 3.0 mi Calm Calm - N/A   Scattered Clouds
12:35 AM 42.1 °F 42.1 °F 100% 30.01 in 0.5 mi Calm Calm - N/A Fog Fog
12:55 AM 42.4 °F 42.4 °F 100% 30.01 in 1.8 mi Calm Calm - N/A   Scattered Clouds
1:15 AM 39.9 °F 39.9 °F 100% 30.01 in 10.0 mi Calm Calm - N/A   Scattered Clouds
1:35 AM 42.1 °F 42.1 °F 100% 30.01 in 4.0 mi Calm Calm - N/A   Scattered Clouds
1:55 AM 39.4 °F 39.4 °F 100% 30.01 in 0.2 mi Calm Calm - N/A Fog Fog
2:15 AM 39.7 °F 39.7 °F 100% 30.01 in 4.0 mi Calm Calm - N/A   Scattered Clouds
2:35 AM 41.9 °F 41.9 °F 100% 30.01 in 0.2 mi Calm Calm - N/A Fog Fog
2:55 AM 41.2 °F 41.2 °F 100% 30.01 in 0.5 mi Calm Calm - N/A Fog Fog
3:15 AM 40.3 °F 40.3 °F 100% 30.01 in 0.2 mi Calm Calm - N/A Fog Fog
3:35 AM 39.4 °F 39.4 °F 100% 30.01 in 0.5 mi Calm Calm - N/A Fog Fog
3:55 AM 41.7 °F 41.7 °F 100% 30.01 in 0.8 mi Calm Calm - N/A   Overcast
4:15 AM 42.8 °F 42.8 °F 100% 30.01 in 10.0 mi Calm Calm - N/A   Overcast
4:35 AM 45.7 °F 45.7 °F 100% 30.01 in 10.0 mi Calm Calm - N/A   Overcast
4:55 AM 46.4 °F 46.4 °F 100% 30.01 in 10.0 mi Calm Calm - N/A   Overcast
5:15 AM 46.4 °F 46.4 °F 100% 30.01 in 10.0 mi Calm Calm - N/A   Overcast
5:55 AM 47.3 °F 47.3 °F 100% 30.02 in 10.0 mi Calm Calm - N/A   Overcast
6:15 AM 47.7 °F 47.7 °F 100% 30.02 in 10.0 mi Calm Calm - N/A   Overcast
6:35 AM 48.2 °F 48.2 °F 100% 30.03 in 10.0 mi WNW 4.6 mph - N/A   Overcast
6:55 AM 49.3 °F 49.1 °F 99% 30.03 in 10.0 mi Calm Calm - N/A   Overcast
7:15 AM 50.0 °F 49.1 °F 97% 30.03 in 10.0 mi Calm Calm - N/A   Overcast
7:35 AM 51.4 °F 48.6 °F 90% 30.03 in 10.0 mi Calm Calm - N/A   Overcast
7:55 AM 52.2 °F 48.2 °F 86% 30.04 in 10.0 mi Calm Calm - N/A   Overcast
8:15 AM 53.2 °F 48.6 °F 84% 30.05 in 10.0 mi NW 4.6 mph - N/A   Overcast
8:35 AM 54.5 °F 48.4 °F 80% 30.05 in 10.0 mi NW 4.6 mph - N/A   Overcast
9:15 AM 55.9 °F 46.0 °F 69% 30.05 in 10.0 mi NNW 5.8 mph - N/A   Overcast
9:35 AM 56.3 °F 46.2 °F 69% 30.05 in 10.0 mi NNW 5.8 mph - N/A   Overcast
9:55 AM 57.7 °F 46.8 °F 67% 30.05 in 10.0 mi NNW 4.6 mph - N/A   Overcast
10:15 AM 59.0 °F 46.6 °F 63% 30.05 in 10.0 mi NNW 6.9 mph - N/A   Overcast
10:35 AM 60.6 °F 46.9 °F 61% 30.05 in 10.0 mi NW 8.1 mph - N/A   Overcast
10:55 AM 62.4 °F 45.9 °F 55% 30.05 in 10.0 mi North 6.9 mph - N/A   Overcast
11:15 AM 63.7 °F 45.7 °F 52% 30.05 in 10.0 mi NW 9.2 mph - N/A   Scattered Clouds
11:35 AM 63.7 °F 43.5 °F 48% 30.04 in 10.0 mi NNW 9.2 mph 18.4 mph N/A   Clear
11:55 AM 65.5 °F 43.0 °F 44% 30.04 in 10.0 mi NNW 10.4 mph - N/A   Scattered Clouds
12:15 PM 66.6 °F 39.4 °F 37% 30.03 in 10.0 mi North 9.2 mph - N/A   Mostly Cloudy
12:35 PM 66.0 °F 42.4 °F 42% 30.03 in 10.0 mi North 9.2 mph - N/A   Mostly Cloudy
12:55 PM 66.6 °F 43.0 °F 42% 30.03 in 10.0 mi North 10.4 mph - N/A   Mostly Cloudy
1:15 PM 66.7 °F 41.9 °F 40% 30.02 in 10.0 mi North 5.8 mph - N/A   Mostly Cloudy
1:35 PM 65.5 °F 42.4 °F 43% 30.02 in 10.0 mi WNW 9.2 mph - N/A   Mostly Cloudy
1:55 PM 67.1 °F 40.6 °F 38% 30.01 in 10.0 mi North 9.2 mph 16.1 mph N/A   Mostly Cloudy
2:15 PM 67.8 °F 41.0 °F 38% 30.01 in 10.0 mi NW 9.2 mph - N/A   Scattered Clouds
2:35 PM 68.7 °F 40.8 °F 36% 30.01 in 10.0 mi NW 8.1 mph - N/A   Scattered Clouds
2:55 PM 68.9 °F 41.2 °F 36% 30.01 in 10.0 mi WNW 4.6 mph - N/A   Mostly Cloudy
3:15 PM 70.2 °F 40.1 °F 34% 30.01 in 10.0 mi WNW 6.9 mph - N/A   Mostly Cloudy
3:35 PM 67.3 °F 41.5 °F 39% 30.01 in 10.0 mi NW 9.2 mph - N/A   Overcast
3:55 PM 69.8 °F 41.4 °F 36% 30.01 in 10.0 mi NW 8.1 mph - N/A   Mostly Cloudy
4:15 PM 68.2 °F 39.7 °F 35% 30.01 in 10.0 mi NW 5.8 mph - N/A   Mostly Cloudy
4:35 PM 66.9 °F 41.7 °F 40% 30.01 in 10.0 mi NNW 6.9 mph - N/A   Mostly Cloudy
4:55 PM 66.6 °F 40.3 °F 38% 30.01 in 10.0 mi North 8.1 mph - N/A   Scattered Clouds
5:15 PM 66.7 °F 43.5 °F 43% 30.01 in 10.0 mi NW 4.6 mph - N/A   Scattered Clouds
5:35 PM 66.6 °F 41.2 °F 40% 30.01 in 10.0 mi NW 5.8 mph - N/A   Mostly Cloudy
5:55 PM 65.8 °F 41.2 °F 41% 30.01 in 10.0 mi NNW 5.8 mph - N/A   Scattered Clouds
6:15 PM 64.2 °F 43.7 °F 47% 30.01 in 10.0 mi NNW 3.5 mph - N/A   Clear
6:35 PM 67.6 °F 40.8 °F 38% 30.01 in 10.0 mi NNW 9.2 mph - N/A   Clear
6:55 PM 67.1 °F 41.0 °F 39% 30.01 in 10.0 mi NNW 4.6 mph - N/A   Clear
7:15 PM 66.2 °F 40.8 °F 40% 30.01 in 10.0 mi NNW 4.6 mph - N/A   Clear
7:35 PM 65.5 °F 41.7 °F 42% 30.01 in 10.0 mi NNW 4.6 mph - N/A   Clear
7:55 PM 64.0 °F 43.5 °F 47% 30.00 in 10.0 mi Calm Calm - N/A   Clear
8:15 PM 61.3 °F 45.7 °F 56% 30.00 in 10.0 mi Calm Calm - N/A   Clear
8:35 PM 56.7 °F 46.8 °F 69% 30.01 in 10.0 mi Calm Calm - N/A   Clear
8:55 PM 54.7 °F 46.9 °F 75% 30.01 in 10.0 mi Calm Calm - N/A   Clear
9:15 PM 53.1 °F 47.1 °F 80% 30.01 in 10.0 mi Calm Calm - N/A   Clear
9:35 PM 50.7 °F 48.9 °F 94% 30.02 in 10.0 mi Calm Calm - N/A   Clear
9:55 PM 49.6 °F 48.6 °F 96% 30.03 in 10.0 mi Calm Calm - N/A   Clear
10:15 PM 49.1 °F 48.6 °F 98% 30.03 in 10.0 mi Calm Calm - N/A   Clear
10:35 PM 49.3 °F 49.1 °F 99% 30.02 in 10.0 mi Calm Calm - N/A   Clear
10:55 PM 48.4 °F 48.4 °F 100% 30.03 in 10.0 mi Calm Calm - N/A   Clear
11:15 PM 46.6 °F 46.4 °F 99% 30.03 in 1.0 mi Calm Calm - N/A   Mist
11:35 PM 46.8 °F 46.8 °F 100% 30.03 in 0.5 mi Calm Calm - N/A Fog Fog
11:55 PM 46.4 °F 46.4 °F 100% 30.03 in 0.5 mi Calm Calm - N/A Fog Fog